Home > Weather > Innsbruck > Past weeks

Flag for Austria Weather for the Past 2 Weeks in Innsbruck, Tyrol, Austria

Now
37 °F

Passing clouds.


Feels Like: 32 °F
Forecast: 28 / 43 °F
Wind: 6 mph from West

Location: Innsbruck-Flughafen

Current Time: Feb 13, 2016 at 9:32:41 PM

Latest Report: Feb 13, 2016 at 9:00 PM


Visibility: 12 mi

Pressure: 29.32 "Hg (27.32 "Hg at 570m altitude)

Humidity: 78%

Dew point: 31 °F

Location of InnsbruckLocation

Historic Weather in Innsbruck — Graph

°F

Innsbruck Temperature Yesterday

Maximum temperature yesterday: 44 °F (at 3:00 PM)
Minimum temperature yesterday: 25 °F (at 7:00 AM)
Average temperature yesterday: 36 °F

High & Low Weather Summary for the Past Weeks

 TemperatureHumidityPressure
High58 °F (Feb 1, 3:00 PM)100% (Feb 1, 1:00 AM)30.51 "Hg (Feb 1, 1:00 AM)
Low25 °F (Feb 12, 7:00 AM)31% (Feb 11, 3:00 PM)29.23 "Hg (Feb 10, 12:00 AM)
Average39 °F78%29.95 "Hg
* Reported Jan 29 8:00 PM — Feb 13 8:00 PM, Innsbruck, Weather by CustomWeather, © 2016

Note: Actual official high and low records may vary slightly from our data, if they occured in-between our weather recording intervals... More about our weather records

Advertising

Innsbruck Weather History for the Previous 24 Hours

 ConditionsComfort  
Time TempWeatherWind HumidityBarometerVisibility
8:00 PM
Sat, Feb 13
36 °FPassing clouds.3 mph80%29.32 "Hg9 mi
7:00 PM38 °FPassing clouds.N/A77%29.29 "Hg9 mi
6:00 PM39 °FPassing clouds.N/A74%29.26 "Hg9 mi
5:00 PM44 °FPassing clouds.5 mph65%29.23 "Hg22 mi
4:00 PM44 °FPartly sunny.6 mph65%29.26 "Hg22 mi
3:00 PM44 °FOvercast.6 mph65%29.29 "Hg28 mi
2:00 PM45 °FPartly sunny.N/A62%29.29 "Hg9 mi
1:00 PM44 °FPartly sunny.N/A63%29.32 "Hg16 mi
12:00 PM42 °FPartly sunny.N/A65%29.38 "Hg7 mi
11:00 AM40 °FPartly sunny.N/A74%29.41 "Hg12 mi
10:00 AM36 °FPartly sunny.N/A84%29.44 "Hg9 mi
9:00 AM35 °FLight snow. Overcast.N/A87%29.47 "Hg8 mi
8:00 AM34 °FLight snow. Overcast.3 mph88%29.44 "Hg8 mi
7:00 AM35 °FPassing clouds.N/A76%29.44 "Hg9 mi
6:00 AM32 °FPassing clouds.N/A80%29.44 "Hg9 mi
5:00 AM32 °FOvercast.N/A77%29.44 "Hg9 mi
1:00 AM35 °FOvercast.N/A68%29.44 "Hg15 mi
12:00 AM34 °FOvercast.N/A71%29.44 "Hg13 mi
10:00 PM
Fri, Feb 12
36 °FOvercast.N/A65%29.44 "Hg11 mi
9:00 PM37 °FOvercast.N/A61%29.44 "Hg11 mi
Weather by CustomWeather, © 2016

See weather overviewHow to use our weather pages